Location: Castle
(40.7167°S, 175.9500°E)
Time: 02:31:03
(UTC+00:00)

Cosmos 1680 Rocket - Pass Details

Date: 04 August 2024
Orbit: 756 x 779 km, 74.1° (Epoch: 07 September)

Event Time Altitude Azimuth Distance (km) Brightness Sun altitude
Exits shadow 17:06:20 40° 344° (NNW) 1,124 4.2 -25.2°
Drops below altitude 10° 17:09:45 10° 4° (N) 2,290 6.0 -24.6°
Sets 17:12:07 0° 7° (N) 3,205 6.8 -24.1°
